EHI
41 41 34 29 33 39 44 44 30 16 13 10 6 2 0 0 1 3 4 12 33 55 72 83 88 90 90 88 87 88 88 88 83 69 47 27 16 13 10 3 0 0 0
57 60 53 38 31 32 36 37 29 18 14 14 9 4 1 0 2 4 3 9 32 57 73 82 87 90 91 90 88 86 85 86 83 68 42 22 15 12 9 4 1 1 0
80 83 74 47 24 21 27 33 29 18 11 11 9 4 1 1 3 3 1 5 23 50 72 83 88 90 91 90 89 86 84 83 81 68 42 21 13 10 7 4 3 1 0
77 80 73 47 21 20 38 49 40 21 8 4 3 1 0 0 1 1 0 2 13 41 71 86 89 90 91 90 88 84 78 74 75 73 58 33 18 9 3 2 1 1 0
43 51 55 44 27 33 56 64 46 22 7 2 0 0 0 0 0 0 0 1 9 34 64 81 85 89 91 88 84 75 61 53 56 64 64 50 29 11 2 0 0 0 0
19 27 39 43 43 51 63 60 39 17 5 1 0 0 0 0 0 0 0 1 5 19 40 56 66 78 86 83 76 64 45 34 33 34 44 48 32 13 3 0 0 0 0
11 15 24 39 55 67 67 57 37 18 6 1 0 0 0 0 0 0 0 0 1 4 13 22 33 49 61 59 50 42 32 26 23 17 23 33 27 14 5 1 0 0 0
8 9 12 26 46 58 58 53 45 29 12 2 0 0 0 0 0 0 0 0 0 0 1 3 9 18 24 22 19 16 17 19 19 16 15 19 18 11 5 1 0 0 0
6 8 10 16 26 32 31 36 46 40 19 5 1 0 0 0 0 0 0 0 0 0 0 0 1 2 2 2 3 4 5 8 9 9 10 11 8 4 2 1 0 0 0
2 5 9 12 14 14 10 15 28 30 18 7 3 1 0 0 0 0 0 0 0 0 0 0 0 0 0 1 2 2 2 2 1 2 6 6 3 0 0 0 0 0 0
0 1 3 5 6 7 3 4 9 11 9 5 2 0 0 0 0 0 0 0 0 0 0 0 0 0 0 0 0 0 0 0 0 1 2 3 1 0 0 0 0 0 0
0 0 0 0 1 2 1 0 1 1 1 1 0 0 0 0 0 0 0 0 0 0 0 0 0 0 0 0 0 0 0 0 0 0 0 0 0 0 0 0 0 0 0
0 0 0 0 0 0 0 0 0 0 0 0 0 0 0 0 0 0 0 0 0 0 0 0 0 0 0 0 0 0 0 0 0 0 0 0 0 0 0 0 0 0 0
0 0 0 0 0 0 0 0 0 0 0 0 0 0 0 0 0 0 0 0 0 0 0 0 0 0 0 0 0 0 0 0 0 0 0 0 0 0 0 0 0 0 0
0 0 0 0 0 0 0 0 0 0 0 0 0 0 0 0 0 0 0 0 0 0 0 0 0 0 0 0 0 0 0 0 0 0 0 0 0 0 0 0 0 0 0
0 0 0 0 0 0 0 0 0 0 0 0 0 0 0 0 0 0 0 0 0 0 0 0 0 0 0 0 0 0 0 0 0 0 0 0 0 0 0 0 0 0 0
0 0 0 0 0 0 0 0 0 0 0 0 0 0 0 0 0 0 0 0 0 0 0 0 0 0 0 0 0 0 0 0 0 0 0 0 0 0 0 0 0 0 0
0 0 0 0 0 0 0 0 0 0 0 0 0 0 0 0 0 0 0 0 0 0 0 0 0 0 0 0 0 0 0 0 0 0 0 0 0 0 0 0 0 0 0
0 0 0 0 0 0 0 0 0 0 0 0 0 0 0 0 0 0 0 0 0 0 0 0 0 0 0 0 0 0 0 0 0 0 0 0 0 0 0 0 0 0 0
0 0 0 0 0 0 0 0 0 0 0 0 0 0 0 0 0 0 0 0 0 0 0 0 0 0 0 0 0 0 0 0 0 0 0 0 0 0 0 0 0 0 0
0 0 0 0 0 0 0 0 0 0 0 0 0 0 0 0 0 0 0 0 0 0 0 0 0 0 0 0 0 0 0 0 0 0 0 0 0 0 0 0 0 0 0
0 0 0 0 0 0 0 0 0 0 0 0 0 0 0 0 0 0 0 0 0 0 0 0 0 0 0 0 0 0 0 0 0 0 0 0 0 0 0 0 0 0 0
0 0 0 0 0 0 0 0 0 0 0 0 0 0 0 0 0 0 0 0 0 0 0 0 0 0 0 0 0 0 0 0 0 0 0 0 0 0 0 0 0 0 0
0 0 0 0 0 0 0 0 0 0 0 0 0 0 0 0 0 0 0 0 0 0 0 0 0 0 0 0 0 0 0 0 0 0 0 0 0 0 0 0 0 0 0
0 0 0 0 0 0 0 0 0 0 0 0 0 0 0 0 0 0 0 0 0 0 0 0 0 0 0 0 0 0 0 0 0 0 0 0 0 0 0 0 0 0 0
0 0 0 0 0 0 0 0 0 0 0 0 0 0 0 0 0 0 0 0 0 0 0 0 0 0 0 0 0 0 0 0 0 0 0 0 0 0 0 0 0 0 0
Wind_Speed
7 6 6 5 5 5 6 6 6 7 8 9 9 10 9 7 6 6 6 14 16 15 15 17 19 20 20 20 20 20 19 18 17 16 18 18 18 18 18 19 18 18 18
8 7 7 6 6 6 7 6 7 7 8 8 8 9 9 7 7 8 7 9 15 17 18 20 21 21 20 20 20 20 19 19 18 18 18 18 18 18 18 19 19 18 17
11 9 7 7 6 6 5 4 5 4 5 5 5 5 6 6 7 9 8 6 8 14 19 20 21 21 20 20 20 20 19 18 18 18 19 18 18 18 19 19 19 18 17
11 9 7 6 6 4 4 4 4 3 4 4 4 4 4 4 9 8 7 7 6 7 12 18 19 19 21 21 21 21 20 19 18 18 18 18 18 18 19 19 18 17 17
8 8 7 6 5 4 4 4 4 3 3 3 3 4 5 5 8 7 8 9 8 8 7 11 17 18 20 22 21 20 19 19 19 20 20 20 19 18 18 18 17 17 16
7 6 6 6 4 4 5 4 5 5 4 4 3 5 5 6 7 8 9 7 7 9 8 8 8 9 17 20 18 19 20 19 19 19 20 20 20 19 17 16 15 16 17
6 6 5 5 6 8 9 7 5 5 5 4 2 4 6 8 11 10 9 8 10 10 9 9 6 4 6 11 12 15 17 19 18 17 18 19 20 19 18 16 16 17 18
7 5 6 6 6 6 7 7 5 3 3 6 5 2 3 5 7 9 10 9 8 7 9 8 6 4 3 3 5 9 13 17 18 18 17 17 19 20 19 18 19 19 19
7 7 7 7 8 7 8 8 8 9 7 5 8 6 5 5 2 3 4 3 4 5 6 5 5 4 3 3 4 6 10 13 16 19 19 16 17 19 19 19 20 19 19
9 9 8 9 9 7 8 8 8 8 9 7 6 8 6 4 2 3 3 4 5 3 3 3 2 2 2 1 0 3 8 9 8 11 15 16 16 16 16 17 20 19 19
9 9 8 9 10 8 8 7 7 9 9 9 7 4 4 4 4 4 5 5 3 3 1 4 1 1 1 3 1 1 1 4 6 8 11 13 13 15 16 20 22 22 21
10 12 9 7 9 8 7 8 8 9 9 8 7 6 5 5 5 5 4 3 1 3 2 1 2 2 2 1 0 1 2 2 2 4 9 9 8 11 14 14 17 20 21
11 12 9 6 7 7 6 6 6 6 6 6 7 5 5 5 5 5 3 3 1 2 4 4 3 3 3 2 2 1 1 4 4 4 6 7 6 6 6 6 6 9 14
10 11 9 7 5 5 5 5 5 6 6 7 7 6 5 6 4 5 4 3 2 1 1 2 3 4 3 2 2 2 3 4 5 4 4 5 5 4 4 4 5 5 6
8 7 6 5 3 3 4 5 5 7 6 6 6 6 5 4 3 4 3 2 4 2 0 1 1 3 3 2 1 0 1 3 4 5 5 4 4 4 4 4 5 7 8
9 8 8 6 3 1 2 4 4 4 4 3 3 4 3 1 3 4 3 2 3 3 1 0 1 2 3 3 4 3 3 5 7 7 7 7 5 4 5 6 7 8 10
7 7 8 7 4 3 2 1 1 3 3 3 3 2 5 7 4 2 3 4 2 2 2 1 2 4 5 4 3 3 3 3 5 10 12 7 4 4 5 8 10 11 12
7 6 7 9 8 6 5 3 4 3 3 3 2 4 7 7 5 4 5 4 3 2 3 3 4 5 4 3 3 3 2 3 4 9 13 10 6 3 5 8 10 12 11
6 6 6 7 9 9 8 6 6 3 2 2 4 6 5 7 6 5 6 5 3 4 5 6 3 1 1 1 2 2 2 1 2 6 9 10 8 6 6 7 9 10 10
4 4 6 6 7 6 6 5 5 3 2 3 5 7 8 7 6 6 6 5 5 7 5 5 3 2 2 2 1 2 2 2 2 3 5 5 5 5 6 7 8 9 10
2 3 3 4 4 3 1 3 4 4 5 7 9 9 9 10 10 7 7 5 6 6 4 4 2 2 3 3 3 3 2 2 2 3 3 3 3 3 3 4 6 10 13
1 2 3 2 2 1 5 4 3 5 8 10 8 7 8 9 7 10 12 12 9 6 3 2 2 2 2 2 2 2 2 2 2 3 3 3 2 3 3 4 6 9 12
4 6 5 3 1 2 1 8 9 6 7 7 7 7 7 6 9 10 11 12 10 8 4 2 2 2 1 3 3 3 2 0 1 3 2 3 3 3 4 4 7 8 10
5 5 4 4 3 5 9 12 11 8 8 7 6 6 7 5 7 8 7 8 7 7 5 2 2 2 2 1 1 1 1 1 2 2 1 2 4 3 4 4 6 8 10
5 5 5 5 5 4 8 11 10 7 6 5 4 5 7 7 9 11 9 8 8 8 8 11 11 8 7 6 4 4 4 3 2 3 2 2 4 4 4 4 5 9 11
6 6 6 5 6 4 6 11 9 6 5 4 5 5 8 9 11 11 9 7 7 5 6 8 9 9 8 7 7 4 1 2 1 2 3 2 4 4 4 4 4 6 8
Wind_Direction
222 219 218 208 206 202 209 212 222 233 238 236 232 238 248 247 230 235 234 241 238 225 217 213 209 214 215 217 217 218 221 222 221 219 220 221 222 221 220 223 220 213 209
230 227 224 212 208 205 210 213 217 225 230 229 227 228 238 237 236 241 244 244 235 227 223 221 219 217 218 218 217 218 219 220 220 220 223 223 222 222 221 221 223 219 214
229 230 223 219 213 203 202 209 223 222 231 227 224 228 235 238 248 244 240 244 241 233 230 225 221 221 220 221 219 218 217 219 220 221 224 225 222 220 220 218 218 217 214
229 230 226 225 231 213 193 197 200 211 224 224 228 236 247 254 257 249 245 247 241 242 239 230 225 223 223 225 225 223 218 217 219 219 221 222 221 220 220 219 216 215 213
244 241 235 228 226 224 214 203 197 193 214 225 236 254 252 251 254 249 247 248 248 241 237 236 230 222 221 230 229 227 226 219 221 219 220 220 221 219 219 220 216 212 212
260 247 237 222 210 227 231 210 203 197 203 205 217 251 255 255 258 251 249 253 258 251 239 240 239 228 227 228 230 228 231 226 224 224 223 221 220 217 215 219 215 213 213
265 253 249 230 214 220 229 216 201 200 209 173 193 265 255 242 246 253 256 255 253 251 241 234 225 218 233 237 233 229 231 230 226 225 226 219 217 218 213 209 210 212 213
273 246 244 242 229 222 227 216 196 181 208 171 173 211 290 279 246 244 246 248 258 256 239 228 204 196 192 203 209 213 227 227 224 225 225 218 215 215 210 204 207 212 211
274 265 245 236 234 219 222 219 201 206 228 204 189 190 217 239 279 272 256 261 286 259 237 221 192 175 199 209 217 221 238 235 227 228 227 220 219 217 211 205 210 212 212
284 275 264 249 236 219 220 222 208 215 220 228 209 212 221 211 203 285 300 304 320 332 336 294 216 183 204 93 55 241 243 247 241 237 227 221 221 221 213 211 217 215 212
286 274 261 259 243 224 220 216 212 210 209 217 213 198 210 208 198 204 266 289 310 313 291 255 309 319 151 149 138 287 253 254 253 250 239 226 228 234 224 220 223 223 218
297 285 269 258 244 220 206 214 211 208 212 211 202 189 179 180 180 182 225 262 301 320 294 339 354 17 62 86 68 286 281 314 333 279 259 255 261 262 251 240 239 231 229
297 285 275 267 248 224 202 195 193 199 210 212 208 197 195 205 169 157 181 212 133 354 335 360 7 31 37 16 325 288 358 358 357 344 311 303 308 291 287 294 277 252 243
300 289 278 273 255 235 206 189 205 209 213 223 218 204 195 213 178 152 167 167 111 63 340 8 7 30 13 357 335 52 10 347 341 329 310 315 324 327 344 342 333 314 291
326 328 314 299 285 238 216 202 218 221 213 217 211 192 184 198 171 136 158 150 115 102 33 42 18 356 5 7 38 133 250 308 332 312 292 284 299 320 325 312 305 293 280
336 347 341 336 331 290 203 210 221 214 195 189 185 177 161 111 94 130 146 127 114 134 136 235 20 350 355 348 5 11 18 39 10 344 300 284 283 295 303 312 309 301 287
334 353 2 345 342 336 294 187 166 100 111 84 54 102 120 109 108 139 107 112 129 127 124 40 30 18 25 355 354 19 48 34 6 3 349 323 329 331 332 327 317 304 287
336 356 10 14 8 21 22 50 70 88 115 142 145 114 112 110 106 99 91 96 105 117 122 101 51 27 21 343 348 34 44 35 11 7 13 34 50 38 4 341 326 309 292
331 354 12 16 27 24 26 26 70 71 101 137 116 107 103 99 93 86 81 86 93 90 98 100 81 16 359 338 356 4 49 18 2 15 28 41 54 51 31 7 352 340 319
319 7 18 25 47 28 16 38 86 117 144 101 86 78 69 72 83 86 81 71 82 85 85 92 90 30 8 342 17 4 354 2 354 359 16 18 26 23 12 358 347 340 331
325 38 58 77 65 55 276 190 185 163 110 81 63 59 58 66 73 78 83 76 81 86 83 81 72 38 10 2 355 339 346 326 316 352 348 341 349 344 339 339 340 336 333
210 173 185 128 108 158 273 224 157 103 89 82 75 63 53 54 71 78 78 70 70 81 82 82 76 55 8 337 330 332 349 7 344 337 335 309 322 312 300 307 326 337 335
178 189 188 176 185 304 119 107 99 93 94 88 81 73 63 49 67 72 68 61 55 58 69 128 112 72 16 327 327 351 12 337 247 291 312 303 311 292 281 291 308 321 333
173 167 171 176 130 28 74 87 88 86 84 82 88 98 95 73 76 84 71 54 37 29 18 26 81 142 164 269 254 240 260 286 270 300 17 304 309 300 297 301 313 314 322
164 171 173 171 113 60 85 93 92 89 88 87 89 86 87 80 79 81 77 63 44 20 20 45 56 70 78 56 37 39 16 33 347 301 331 348 316 306 301 303 322 333 330
168 169 167 174 151 132 108 112 115 116 107 90 67 61 77 86 80 80 84 77 65 5 10 31 29 30 36 38 40 59 81 97 33 334 328 357 325 332 321 314 329 336 335